User: anonymous   Login
Location: Innerarity Island Observatory
(30.3139°N, 87.4867°W)
Time: 13:49:17
(UTC-06:00)
Language:

OPAL - Orbit

View from above orbital plane
View from above orbital plane
View from above satellite
View from above satellite

Ground track
Ground track

The orbit data is extracted from the following two-line orbital elements,

1 26063U 00004C   17020.99228416 -.00000001  00000-0  19821-4 0  9999
2 26063 100.2165 357.2440 0036594   4.4654 355.6846 14.36649803890243
Epoch (UTC): 20 January 2017 23:48:53
Eccentricity: 0.0036594
inclination: 100.2165°
perigee height: 743 km
apogee height: 796 km
right ascension of ascending node: 357.2440°
argument of perigee: 4.4654°
revolutions per day: 14.36649803
mean anomaly at epoch: 355.6846°
orbit number at epoch: 89024

The dashed part of the orbit path shows where the satellite is in the earth's shadow,  

DLR